www.pogodaiklimat.ru

Погода и климат >> Архив погоды >> Кувейт >> Kuwait City


ПОГОДА в Kuwait City

  • Прогноз погоды в Kuwait City
  • Монитор погоды в Kuwait City
  • Климат города

АРХИВ ПОГОДЫ в Kuwait City

Время (UTC), дата Ветер
(напр.,м/с)
 
Видим.   Явления Облачность Т
(С)
Тd
(С)
f
(%)
Тe
(С)
Тes
(С)
Комфортность P
(гПа)
Po
(гПа)
Тmin
(С)
Tmax
(С)
R
(мм)
R24
(мм)
S
(см)
06 6.12 Ю 3-7
{9}
н/о н/о +23.7 +20.3 81 +29 +29 душно 1012.7 1013.0
09 6.12 Ю 3-9
{11}
н/о н/о +25.4 +17.5 62 +30 +30 душно 1010.1 1010.0
12 6.12 ЮЗ 2-3
{11}
н/о н/о +27.1 +11.9 39 +28 +28 жарко 1008.8 1009.0
15 6.12 ЮЗ 2-4
{6}
н/о н/о +23.7 +13.6 53 +26 +26 жарко 1010.9 1011.0
18 6.12 С 2-4
{6}
н/о н/о +21.3 +13.0 59 +24 +24 комфорт 1013.3 1013.0
21 6.12 ЮЗ 1-3
{5}
н/о н/о +19.9 +14.1 69 +23 +23 комфорт 1013.8 1014.0 +19.9 +27.3
00 7.12 В 1-2
{5}
н/о н/о +19.2 +10.3 56 +22 +22 комфорт 1014.1 1014.0
03 7.12 С 1-4
{5}
н/о н/о +17.6 +11.7 68 +19 +19 1015.6 1016.0
06 7.12 Ю 1-2
{5}
н/о н/о +20.1 +11.8 59 +23 +23 комфорт 1017.7 1018.0
09 7.12 ЮЗ 2-4
{5}
н/о н/о +23.1 +9.8 43 +25 +25 комфорт 1016.5 1017.0
12 7.12 С 1-2
{5}
н/о н/о +23.5 +7.0 35 +24 +24 комфорт 1015.5 1016.0
15 7.12 В 1-1
{3}
н/о н/о +21.0 +7.5 42 +24 +24 комфорт 1016.3 1016.0
18 7.12 Ю 1-2
{3}
н/о н/о +20.1 +9.7 51 +23 +23 комфорт 1017.6 1018.0
21 7.12 СВ 1-1
{1}
н/о н/о +18.3 +10.7 61 +20 +20 1017.5 1018.0 +17.3 +24.8
00 8.12 Ю 1-2
{3}
н/о н/о +17.1 +12.6 75 +19 +19 1017.1 1017.0
03 8.12 ЮВ 1-1
{2}
н/о н/о +17.0 +13.2 78 +19 +19 1018.4 1018.0
06 8.12 Ю 2-4
{6}
н/о н/о +21.7 +9.4 45 +23 +23 комфорт 1019.9 1020.0
09 8.12 Ю 2-5
{7}
н/о н/о +25.5 +6.2 29 +25 +25 комфорт 1018.9 1019.0
12 8.12 В 2-4
{7}
н/о н/о +23.3 +14.3 57 +27 +27 душно 1017.9 1018.0
15 8.12 Ю 1-3
{4}
н/о н/о +20.8 +16.6 77 +25 +25 комфорт 1019.0 1019.0
18 8.12 Ю 1-3
{4}
н/о н/о +20.3 +20.3 100 +26 +26 душно 1020.3 1020.0
21 8.12 Ю 1-3
{3}
н/о н/о +20.0 +16.1 +26.2
00 9.12 С 1-2
{3}
н/о н/о +19.6
03 9.12 В 1-2
{2}
н/о н/о +19.5
06 9.12 В 2-5
{5}
н/о н/о +21.6 +18.4 82 +26 +26 душно 1021.6 1022.0
09 9.12 В 1-3
{5}
н/о н/о +22.5 +16.6 69 +27 +27 душно 1020.5 1021.0
12 9.12 СВ 2-4
{5}
н/о н/о +21.9 +14.1 61 +25 +25 комфорт 1019.3 1019.0
15 9.12 ЮВ 1-1
{4}
н/о н/о +20.5 +11.3 56 +26 +26 душно 1019.9 1020.0
18 9.12 В 1-2
{4}
н/о н/о +20.9 +10.7 52 +24 +24 комфорт 1020.4 1020.0
21 9.12 СВ 1-1
{2}
н/о н/о +19.9 +14.8 72 +24 +24 комфорт 1019.9 1020.0 +19.4 +23.7
00 10.12 СВ 1-1
{2}
н/о н/о +18.5 +17.1 92 +21 +21 комфорт 1019.6 1020.0
03 10.12 СВ 1-1
{3}
н/о н/о +18.1 +18.1 100 +20 +20 1019.3 1019.0
06 10.12 СВ 2-3
{4}
н/о н/о +19.2 +14.8 76 +21 +21 комфорт 1020.8 1021.0
09 10.12 С 2-3
{4}
н/о н/о +20.7 +11.0 54 +23 +23 комфорт 1019.2 1019.0
12 10.12 С 2-5
{6}
н/о н/о +22.0 +9.5 45 +24 +24 комфорт 1018.4 1018.0
15 10.12 СВ 1-2
{3}
н/о н/о +20.6 +10.5 52 +24 +24 комфорт 1019.8 1020.0
18 10.12 СВ 1-3
{3}
н/о н/о +20.3 +12.9 62 +23 +23 комфорт 1020.4 1020.0
21 10.12 С 1-2
{4}
н/о н/о +18.5 +13.2 71 +20 +20 1020.7 1021.0 +17.6 +22.5
03 11.12 СВ 1-3
{5}
н/о н/о +16.5 +14.8 90 +17 +17 1022.4 1022.0
06 11.12 СВ 2-4
{5}
н/о н/о +18.1 +15.2 83 +19 +19 1024.0 1024.0
09 11.12 С 3-6
{6}
н/о н/о +21.0 +11.5 55 +24 +24 комфорт 1022.7 1023.0
12 11.12 С 3-6
{6}
н/о н/о +22.0 +9.2 44 +23 +23 комфорт 1021.5 1022.0
15 11.12 С 1-3
{7}
н/о н/о +20.4 +9.4 49 +23 +23 комфорт 1022.4 1022.0
18 11.12 СЗ 2-3
{7}
н/о н/о +18.8 +10.1 57 +20 +20 1023.0 1023.0
21 11.12 С 2-4
{7}
н/о н/о +17.4 +11.4 68 +18 +18 1023.2 1023.0 +16.2 +22.8
00 12.12 СЗ 2-4
{7}
н/о н/о +16.8 +13.0 78 +17 +17 1022.9 1023.0
03 12.12 СЗ 1-4
{6}
н/о н/о +16.1 +12.5 79 +17 +17 1023.5 1024.0
06 12.12 З 2-3
{6}
н/о н/о +17.5 +12.2 71 +18 +18 1024.8 1025.0
09 12.12 СВ 2-5
{5}
н/о н/о +20.6 +10.1 51 +23 +23 комфорт 1022.8 1023.0
12 12.12 СВ 2-6
{6}
н/о н/о +22.1 +9.6 45 +24 +24 комфорт 1021.8 1022.0
15 12.12 СВ 1-2
{6}
н/о н/о +19.9 +10.9 56 +22 +22 комфорт 1022.3 1022.0
18 12.12 СВ 1-2
{6}
н/о н/о +18.8 +12.1 65 +21 +21 комфорт 1022.4 1022.0
21 12.12 Ю 1-2
{2}
н/о н/о +16.6 +11.5 72 +17 +17 1022.3 1022.0 +15.6 +22.2
00 13.12 Ю 1-3
{3}
н/о н/о +15.0 +12.1 83 +15 +15 1022.1 1022.0
03 13.12 Ю 1-1
{3}
н/о н/о +14.1 +12.8 92 +15 +15 1023.1 1023.0

 

Местоположение метеостанции Kuwait City (Кувейт): широта 29.33 долгота 48.05 высота над уровнем моря 11 м.

В архиве по умолчанию представлена погода в Kuwait City за последнюю неделю. Архивные данные за месяц целиком и за предыдущие месяцы, начиная с января 2011 года, Вы можете получить, выбрав интересующий диапазон дат из раскрывающегося списка и нажав кнопку "Ввод!".


*Определитесь, кто Вы:
робот инопланетянин человек

Внимание! Время в таблицах - всемирное. Для получения местного времени необходимо прибавить поправку, которая в Kuwait City равна 3 ч.

Смотрите также архив погоды в соседних городах и на ближайших метеорологических станциях:

Погода в Al-Shuaiba (Кувейт) (5 км)
Погода в Experimental Farm (Кувейт) (12 км)
Погода в Kuwait (Кувейт) (14 км)
Погода в Failaka Island (Кувейт) (27 км)
Погода в Sulaibiya (Кувейт) (33 км)
Погода в Jahra (Кувейт) (37 км)
Погода в Sabriyah (Кувейт) (51 км)
Погода в Jal Aliyah (Кувейт) (55 км)
Погода в Juluiah Port (Кувейт) (56 км)
Погода в Minagish (Кувейт) (58 км)

Пояснения к столбцам:

Ветер - указаны скорость ветра в м/с - средняя за 10 мин, порывы в срок и между сроками (в фигурных скобках) и направление, откуда дует ветер: С - северный, СВ - северо-восточный, В - восточный, ЮВ - юго-восточный, Ю - южный, ЮЗ - юго-западный, З - западный, СЗ - северо-западный.
Видимость - горизонтальная дальность видимости в метрах или километрах. При видимости от 1 до 10 км при отсутствии осадков обычно наблюдается дымка, при ухудшении видимости до 1 км и менее - туман. В сухую погоду видимость может ухудшаться дымом, пылью или мглою.
Явления - указаны атмосферные явления, наблюдавшиеся в срок или в последний час перед сроком; фигурными скобками обозначены явления, наблюдавшиеся между сроками (за 1-3 часа до срока); квадратными скобками обозначены град или гололедные отложения с указанием их диаметра в мм.
Облачность - указаны через наклонную черту общая и нижняя облачность в баллах и высота нижней границы облаков в метрах; квадратными скобками обозначены формы облаков: Ci - перистые, Cs - перисто-слоистые, Cc - перисто-кучевые, Ac - высококучевые, As - высокослоистые, Sc - слоисто-кучевые, Ns - слоисто-дождевые, Cu - кучевые, Cb - кучево-дождевые. Подробнее классификацию облаков см. в Атласе облаков (PDF).
T - Температура воздуха - температура, измеренная на высоте 2 м над землей.
Td - Температура точки росы - температура, при понижении до которой содержащийся в воздухе водяной пар достигнет насыщения.
f - Относительная влажность воздуха - влажноcть воздуха, измеренная на высоте 2 м над землей.
Te - Эффективная температура - температура, которую ощущает одетый по сезону человек в тени. Характеристика душности погоды. При расчете учитывается влияние влажности воздуха и скорости ветра на теплоощущения человека.
Tes - Эффективная температура на солнце - температура, которую ощущает человек, с поправкой на солнечный нагрев. Характеристика знойности погоды. Зависит от высоты солнца над горизонтом, облачности и скорости ветра. Ночью, в пасмурную погоду, а также при ветре 12 м/с и более поправка равна нулю.
P - Атмосферное давление - приведенное к уровню моря атмосферное давление.
Po - Атмосферное давление - измеренное на уровне метеостанции атмосферное давление.
Tmin - Минимальная температура - минимум температуры воздуха на высоте 2 м над землей.
Tmax - Максимальная температура - максимум температуры воздуха на высоте 2 м над землей.
R - Количество осадков - Количество выпавших осадков за период времени, мм. При наведении курсора мыши на число - период времени, за который выпало указанное количество осадков.
R24 - Количество осадков - Количество выпавших осадков за 24 часа, мм.
S - Снежный покров - Высота снежного покрова, см. При наведении курсора мыши на число - состояние снежного покрова и степень покрытия местности в баллах.